Torna al catalogo

CZ-6A DEB

AttivoSSO
NORAD 54590·DEBRIS·🇨🇳 China

Lanciato Nov 11, 2022 da Taiyuan Satellite Launch Center

Loading…

Prossimi Passaggi (prossime 24 ore)

TLE

AggiornatoSource: Space-Track

Epoca: Sep 14, 2026, 11:17 UTC

1 54590U 22151MQ  26257.47033092  .00002368  00000-0  77526-3 0  9993
2 54590  98.6061 267.8279 0068184 164.6796 195.6476 14.38077836199949

Traccia CZ-6A DEB in tempo reale con AllMySat

Download on the App Store